Regional Weather Roundup
Issued by NWS San Angelo, TX

Home | Current Version | Previous Version | Text Only | Print | Product List | Glossary Off
Versions: 1 2 3 4 5 6 7 8 9 10 11 12 13 14 15 16 17 18 19 20 21 22 23 24 25 26 27 28 29 30 31 32 33 34 35 36 37 38 39 40 41 42 43 44 45 46 47 48 49 50

000
ASUS44 KSJT 301210
RWRSJT
WEST CENTRAL TEXAS REGIONAL WEATHER ROUNDUP
NATIONAL WEATHER SERVICE SAN ANGELO TX
700 AM CDT SAT MAY 30 2015

NOTE: "FAIR" INDICATES FEW OR NO CLOUDS BELOW 12,000 FEET WITH NO
SIGNIFICANT WEATHER AND/OR OBSTRUCTIONS TO VISIBILITY.

TXZ049-054-064>066-071>073-076>078-098-099-113-114-127-128-139-140-
154-155-168>170-301300
...LOCATIONS ACROSS WEST CENTRAL TEXAS...

CITY           SKY/WX    TMP DP  RH WIND       PRES   REMARKS
SAN ANGELO     PTCLDY    64  60  87 CALM      30.08R
ABILENE        CLOUDY    62  60  93 CALM      30.06R
DYESS AFB      CLOUDY    61  58  89 W2        30.07R FOG
JUNCTION       PTCLDY    63  63 100 CALM      30.07F
SWEETWATER     CLOUDY    61  61 100 CALM      30.14R
BROWNWOOD      CLOUDY    64  63  94 N5        30.05S
COLEMAN        CLOUDY    63  62  96 N5        30.06S
SONORA         PTCLDY    63  61  94 CALM      30.12R
OZONA          NOT AVBL
BRADY          PTCLDY    63  63 100 E10       30.00F
$$

TEXAS PANHANDLE/OKLAHOMA PANHANDLE

CITY           SKY/WX    TMP DP  RH WIND       PRES   REMARKS
AMARILLO       CLOUDY    54  49  83 N15       30.25R
BORGER         CLOUDY    57  49  74 NE14      30.24S
CANADIAN       CLOUDY    56  53  89 N12G17    30.22R
DALHART        MOCLDY    52  47  83 N15       30.29R
DUMAS          PTSUNNY   51  48  89 NE12G17   30.27R
GUYMON         NOT AVBL
HEREFORD       CLOUDY    55  52  90 MISG      30.26S
PAMPA          CLOUDY    54  50  87 NE14      30.25R
PERRYTON       CLOUDY    53  51  92 N12       30.25R
$$

SOUTHERN PANHANDLE/SOUTH PLAINS/ROLLING PLAINS

CITY           SKY/WX    TMP DP  RH WIND       PRES   REMARKS
LUBBOCK        CLOUDY    58  55  90 N3        30.20R
SNYDER         MOCLDY    60  57  91 NW5       30.16R
CHILDRESS      MOCLDY    61  55  81 N23       30.14R
SEMINOLE       RAIN      58  56  91 CALM      30.27R
$$

PERMIAN BASIN

CITY           SKY/WX    TMP DP  RH WIND       PRES   REMARKS
MIDLAND        LGT RAIN  62  57  83 NW20G28   30.22R
ODESSA         TSTM      61  56  83 N22G29    30.22R
WINK           LGT RAIN  61  55  81 NE22G29   30.18R
$$

FAR WEST/SOUTHWEST MOUNTAINS/TRANS PECOS

CITY           SKY/WX    TMP DP  RH WIND       PRES   REMARKS
ALPINE         CLOUDY    64  62  92 N10       30.24R
DRYDEN           N/A     71  61  70 NE8       30.06R
EL PASO        MOCLDY    68  47  46 N13       30.08R
FORT STOCKTON  CLOUDY    64  56  75 N21G32    30.19R
GUADALUPE PASS CLOUDY    51  50  96 NE33      30.23R FOG
MARFA          MOCLDY    63  55  77 NE15      30.18R
PECOS          CLOUDY    59  55  85 CALM      30.18F THUNDER
$$

DALLAS/FORT WORTH METROPLEX

CITY           SKY/WX    TMP DP  RH WIND       PRES   REMARKS
DFW AIRPORT    TSTM      65  65 100 NW25G32   30.02R SQUALL
FTW MEACHAM    RAIN      67  65  93 W8        30.06R
DAL-EXECUTIVE  TSTM      66  64  93 W18       30.06R FOG
GRAND PRAIRIE  RAIN      66  64  94 W13G21    30.04R
ADDISON        HVY RAIN  66  64  94 N20G36    30.05R VSB 1/2
MESQUITE       TSTM      72  70  94 E7        29.98S
LANCASTER      TSTM      71  65  84 W23G30    30.00R
$$

NORTH CENTRAL TEXAS

CITY           SKY/WX    TMP DP  RH WIND       PRES   REMARKS
SHRMAN/DENISON CLOUDY    67  67 100 CALM      30.03R
GAINESVILLE    RAIN      66  64  91 SW13      30.07R
BRIDGEPORT     RAIN      65  65 100 CALM      30.10R
DENTON         RAIN      66  65  96 W10       30.06R FOG
WAXAHACHIE     RAIN      64  64 100 W18G26    30.07R
GRANBURY       CLOUDY    66  64  94 CALM      30.03F
$$

WESTERN NORTH TEXAS

CITY           SKY/WX    TMP DP  RH WIND       PRES   REMARKS
WICHITA FALLS  LGT RAIN  66  64  93 SW9       30.03S
VERNON         CLOUDY    67  59  75 N17G24    30.08R
BRECKENRIDGE   CLOUDY    65  64  97 E5        30.03F
COMANCHE       CLOUDY    64  64 100 N6        30.04F
$$

CENTRAL AND SOUTH CENTRAL TEXAS

CITY           SKY/WX    TMP DP  RH WIND       PRES   REMARKS
AUSTIN/BERGSTM CLOUDY    71  71 100 W5        30.04R
WACO           TSTM      65  64  97 N17G28    30.06R FOG
HILLSBORO        N/A    N/A N/A N/A NW18      30.07F
TEMPLE         CLOUDY    73  66  78 W9G20     30.04R
KILLEEN-GRAY   CLOUDY    68  64  86 NW14      30.06S
FORT HOOD      CLOUDY    68  64  88 NW15      30.06R
GEORGETOWN     CLOUDY    72  70  94 W6        30.04R
LAGO VISTA     CLOUDY    73  69  89 NW7       30.08R
SAN MARCOS     CLOUDY    72  70  94 NW6       30.04
NEW BRAUNFELS  CLOUDY    74  72  93 NW5       30.04R HAZE
RANDOLPH AFB   NOT AVBL
SAN ANTONIO    CLOUDY    75  71  87 NW8       30.05R
STINSON        CLOUDY    73  71  93 CALM      30.01R
PLEASANTON     NOT AVBL
LA GRANGE      CLEAR     70  70  98 CALM      29.99S
GIDDINGS       PTSUNNY   69  68  96 CALM      30.05R
$$

EAST TEXAS

CITY           SKY/WX    TMP DP  RH WIND       PRES   REMARKS
PARIS          MOCLDY    66  63  88 CALM      30.02R
CLARKSVILLE    NOT AVBL
TYLER          CLOUDY    73  69  87 CALM      30.02R
LONGVIEW       CLOUDY    72  70  93 CALM      30.01R
PALESTINE      PTSUNNY   71  70  96 S3        30.03R
NACOGDOCHES    CLOUDY    73  72  94 SW5       30.02R
$$

TEXAS HILL COUNTRY AND EDWARDS PLATEAU

CITY           SKY/WX    TMP DP  RH WIND       PRES   REMARKS
LLANO          CLOUDY    66  64  94 SE7       30.10F
HORSESHOE BAY  LGT RAIN  68  64  88 NW7       30.09R
KERRVILLE      LGT RAIN  64  61  89 N10G16    30.10S
FREDERICKSBRG    N/A    N/A N/A N/A N6        30.10F
ROCKSPRINGS    MOSUNNY  N/A N/A N/A E10       30.10F
HONDO          CLOUDY    73  72  96 CALM      30.07R
UVALDE         LGT RAIN  72  71  97 NE5       30.05R
DEL RIO        LGT RAIN  75  72  90 E9        29.99S
$$

SOUTHEAST TEXAS

CITY           SKY/WX    TMP DP  RH WIND       PRES   REMARKS
COLLEGE STN    PTCLDY    71  70  96 S3        30.01R
CALDWELL       MOSUNNY   70  70 100 CALM      30.05R
CROCKETT       NOT AVBL
BRENHAM        FOG       72  71  98 CALM      30.02R VSB 1
HUNTSVILLE     CLOUDY    73  72  96 S8        30.02R FOG
CONROE         FOG       68  67  96 CALM      30.02R VSB 1/4
HOUSTON BUSH   PTCLDY    73  72  96 CALM      30.00S
HOUSTON HOBBY  PTCLDY    73  73 100 CALM      30.00R
PERLAND        CLEAR     74  72  93 CALM      30.02R
WHARTON        PTSUNNY   72  71  98 CALM      30.01S FOG
$$

THE UPPER TEXAS COAST

CITY           SKY/WX    TMP DP  RH WIND       PRES   REMARKS
ORANGE           N/A     72  71  97 CALM      30.03R FOG
PORT ARTHUR    PTCLDY    74  73  97 CALM      30.02R FOG
GALVESTON      PTCLDY    78  75  90 SW3       30.02R
ANGLETON       PTCLDY    69  69 100 N3        30.01R FOG
BAY CITY       PTSUNNY   72  72 100 CALM      30.00R FOG
$$

TEXAS COASTAL BEND, RIO GRANDE PLAINS DEEP SOUTH TEXAS

CITY           SKY/WX    TMP DP  RH WIND       PRES   REMARKS
VICTORIA       PTCLDY    73  73 100 CALM      30.01R FOG
BEEVILLE       FOG       71  71 100 CALM      29.99R VSB<1/4
ROCKPORT       MOCLDY    77  72  84 S3        29.98R
PORT ARANSAS   PTSUNNY   78  73  85 S3        29.98R
PORT LAVACA    MOSUNNY   72  71  98 CALM      30.00R
CORPUS CHRISTI MOCLDY    75  73  93 CALM      29.98R
KINGSVILLE NAS PTCLDY    73  73 100 NE3       29.98R FOG
COTULLA        PTCLDY    74  71  91 E7        29.98R FOG
LAREDO         PTCLDY    74  73  96 SE7       29.97R
BROWNSVILLE    CLOUDY    75  73  93 SE3       29.95R FOG
PORT ISABEL    CLEAR     75  74  96 SE3       29.94R FOG
HEBBRONVILLE     N/A     73  72  95 E3        29.98S FOG
MCALLEN        CLEAR     77  74  90 E5        29.94S FOG
WESLACO        CLEAR     75  73  92 CALM      29.94R
FALFURRIAS       N/A     73  72  96 NE3       29.97R VSB 1/2
EDINBURG       MOSUNNY   76  73  91 SE5       29.95R FOG
$$


USA.gov is the U.S. government's official web portal to all federal, state and local government web resources and services.